Location: Milton
(43.5183°N, 79.8775°W)
Time: 20:09:50
(UTC+00:00)

BlueWalker 3 - Visible Passes

Search period start: 08 December 2022 00:00
Search period end: 18 December 2022 00:00
Orbit: 501 x 518 km, 53.2° (Epoch: 08 December)

Date Brightness Start Highest point End Pass type
(mag) Time Alt. Az. Time Alt. Az. Time Alt. Az.
08 Dec 3.2 00:06:04 10° NW 00:08:29 36° NW 00:08:29 36° NW visible
08 Dec 1.9 23:47:39 10° NW 23:51:16 74° NNW 23:51:16 74° NNW visible
09 Dec 1.8 23:29:14 10° NW 23:33:09 88° NE 23:34:13 47° ESE visible
10 Dec 1.9 23:10:49 10° NW 23:14:44 87° SW 23:17:28 19° SE visible
11 Dec 5.0 00:51:01 10° W 00:52:21 13° WSW 00:52:21 13° WSW visible
11 Dec 2.0 22:52:24 10° NW 22:56:18 82° SW 23:00:11 10° SE visible
12 Dec 5.0 00:32:49 10° WSW 00:34:24 12° SW 00:35:57 10° SSW visible
12 Dec 2.1 22:33:58 10° WNW 22:37:53 78° SW 22:41:45 10° SE visible
13 Dec 5.1 00:14:42 10° WSW 00:15:55 11° SW 00:17:09 10° SW visible
13 Dec 2.2 22:15:32 10° WNW 22:19:26 73° SW 22:23:18 10° SE visible
13 Dec 5.3 23:56:44 10° WSW 23:57:27 10° SW 23:58:09 10° SW visible
